{"data":{"norad_id":66619,"intl_designator":"2025-271C","name":"STARLINK-35951","alt_names":[],"object_type":"PAYLOAD","status":"ACTIVE","operator":null,"country":"US","launch_date":"2025-11-23","launch_site_code":"AFWTR","launch_vehicle":null,"mission":null,"orbit_class":"UNKNOWN","rcs_meters":null,"size_class":null,"mass_kg":null,"dimensions":null,"purposes":["comms"],"wikipedia_slug":null,"has_3d_model":false,"image_url":null,"decayed_at":null,"tle_current":{"epoch":"2026-05-25T00:56:24.162720Z","epoch_age_seconds":64948,"freshness":"FRESH","line1":"1 66619U 25271C   26145.03916855  .00003262  00000+0  12223-3 0  9995","line2":"2 66619  53.1581 145.4724 0001327  87.5205 272.5947 15.30191964 29253","mean_motion":15.30191964,"eccentricity":0.0001327,"inclination_deg":53.1581,"raan_deg":145.4724,"arg_perigee_deg":87.5205,"mean_anomaly_deg":272.5947,"bstar":0.00012223,"rev_number":2925,"period_min":94.105839912776,"perigee_km":474.3296205682,"apogee_km":476.14850657547,"semimajor_km":6853.3760635718,"source":"CELESTRAK","updated_at":"2026-05-25T13:38:21.294283Z"}}}